Location: Grust
(42.8833°N, 0.0333°W)
Time: 19:52:34
(UTC+00:00)

SeaSat 1 - Pass Details

Date: 25 October 2020
Orbit: 744 x 747 km, 108.0° (Epoch: 23 November)

Event Time Altitude Azimuth Distance (km) Brightness Sun altitude
Exits shadow 19:12:00 70° 65° (ENE) 796 2.3 -24.5°
Maximum altitude 19:12:03 70° 60° (ENE) 796 2.3 -24.5°
Drops below altitude 10° 19:16:58 10° 338° (NNW) 2,272 5.3 -25.4°
Sets 19:19:15 0° 336° (NNW) 3,200 6.1 -25.8°
